Regional Weather Roundup
Issued by NWS

Home | Current Version | Previous Version | Text Only | Print | Product List | Glossary On
Versions: 1 2 3 4 5 6 7 8 9 10 11 12 13 14 15 16 17 18 19 20 21 22 23 24 25 26 27 28 29 30 31 32 33 34 35 36 37 38 39 40 41 42 43 44 45 46 47 48 49 50
000
ASUS43 KMPX 161310
RWRMN
WEATHER ROUNDUP FOR MINNESOTA
NATIONAL WEATHER SERVICE TWIN CITIES/CHANHASSEN MN
800 AM CDT MON OCT 16 2017


NOTE: "FAIR" INDICATES FEW OR NO CLOUDS BELOW 12,000 FEET WITH NO
SIGNIFICANT WEATHER AND/OR OBSTRUCTIONS TO VISIBILITY. N/A MEANS
CURRENT SKY AND/OR WEATHER CONDITIONS ARE NOT AVAILABLE.

MNZ060>063-068>070-161400-
   Twin Cities Metro

CITY           SKY/WX    TMP DP  RH WIND       PRES   REMARKS
TWIN CITIES    CLEAR     39  37  92 SW5       30.23R
ST PAUL        CLEAR     39  39 100 CALM      30.24R
CRYSTAL        CLEAR     34  31  88 CALM      30.21R FOG
BLAINE         CLEAR     39  39 100 SW3       30.22R
LAKEVILLE      CLEAR     36  36 100 CALM      30.23S
EDEN PRAIRIE   CLEAR     37  35  92 SW5       30.22S
SOUTH ST PAUL  CLEAR     37  37 100 CALM      30.23R
LAKE ELMO      FAIR      36  36 100 CALM      30.23R
$$
MNZ001>005-007-008-013>017-022>024-027-028-161400-
   Northwest Minnesota

CITY           SKY/WX    TMP DP  RH WIND       PRES   REMARKS
BEMIDJI        CLOUDY    34  31  90 S6        30.08F WCI  29
HALLOCK        CLOUDY    30  28  93 SE10      29.98F WCI  21
ROSEAU           N/A     34  30  86 S10       30.00F WCI  26
WARROAD        CLEAR     34  30  86 SW7       30.01F WCI  28
THIEF RVR FALL CLEAR     34  29  82 S9        30.05F WCI  27
CROOKSTON      CLEAR     34  30  86 S12       30.06F WCI  25
FOSSTON        CLEAR     34  30  86 S9        30.08F WCI  26
DETROIT LAKES  CLEAR     36  32  87 S6        30.12F
MOORHEAD       CLEAR     34  30  86 S12       30.12F WCI  25
PARK RAPIDS    CLEAR     33  30  88 S3        30.12S
MAHNOMEN       FAIR      34  31  90 S10       30.10S WCI  26
$$
MNZ006-009>011-018-025>026-161400-
   North Central Minnesota

CITY           SKY/WX    TMP DP  RH WIND       PRES   REMARKS
BAUDETTE       CLOUDY    32  30  92 S7        30.03F WCI  26
FLAG ISLAND    CLOUDY    37  34  87 SW9       29.98F
INTL FALLS     CLOUDY    32  30  92 CALM      30.06S
WASKISH        CLOUDY    34  30  86 S3        30.06F
BIG FORK       CLOUDY    30  28  93 CALM      30.09F FOG
LONGVILLE      CLEAR     30  28  93 SE3       30.11F
GRAND RAPIDS   CLEAR     35  33  92 S6        30.13F WCI  30
CRANE LAKE     PTCLDY    30  28  93 CALM      30.09F
ORR            CLOUDY    32  30  93 CALM      30.07S
COOK           CLOUDY    34  34 100 CALM      30.09F
WALKER         FAIR      34  32  93 SW5       30.10S WCI  30
$$
MNZ012-019>021-037-161400-
   Northeast Minnesota

CITY           SKY/WX    TMP DP  RH WIND       PRES   REMARKS
DULUTH         PTCLDY    35  33  92 W8        30.14S WCI  29
ELY            PTCLDY    34  34 100 SW3       30.09F
HIBBING        CLOUDY    25  24  96 CALM      30.12S
EVELETH        FOG       27  27 100 CALM      30.13S VSB 3/4
DULUTH HARBOR  PTCLDY    37  36  93 S6        30.17R
TWO HARBORS    PTCLDY    43  36  75 W6        30.12R
GRAND MARAIS     N/A     40  36  86 CALM      30.11F
G MARAIS ARPRT PTCLDY    36  30  80 W3        30.09R
$$
MNZ029>031-032-039>041-046>048-054>057-064-161400-
   West Central Minnesota

CITY           SKY/WX    TMP DP  RH WIND       PRES   REMARKS
FERGUS FALLS   CLEAR     34  34 100 S7        30.16F WCI  28
WHEATON        CLEAR     36  30  80 S8        30.17F
MORRIS         CLEAR     34  32  93 S7        30.17S WCI  28
ALEXANDRIA     CLEAR     35  32  88 SW9       30.17F WCI  28
ELBOW LAKE     FAIR      31  31  97 SE7       30.16F WCI  25
WADENA         CLEAR     30  30 100 SW3       30.14S
GLENWOOD       CLEAR     30  30 100 SW6       30.18F WCI  24
APPLETON       CLEAR     34  30  86 CALM      30.19S
BENSON         CLEAR     30  28  93 CALM      30.21S
ORTONVILLE     CLEAR     36  30  80 N5        30.17F
MADISON        CLEAR     37  34  87 S5        30.19S
WILLMAR        FAIR      30  30 100 CALM      30.22F
$$
MNZ033>034-036-042>043-049>051-058-059-161400-
   Central Minnesota

CITY           SKY/WX    TMP DP  RH WIND       PRES   REMARKS
ST CLOUD       CLEAR     30  29  96 CALM      30.20S
SAUK CENTRE    FAIR      31  31  97 S5        30.18F WCI  27
PAYNESVILLE    CLEAR     32  32 100 CALM      30.21S
AITKIN         CLEAR     30  28  93 CALM      30.14S
PINE RIVER     CLEAR     27  25  93 CALM      30.16F
BRAINERD       FOG       31  31 100 CALM      30.16F VSB 1/4
STAPLES        CLEAR     30  30 100 S5        30.14F WCI  25
LONG PRAIRIE   FAIR      32  30  93 SE5       30.17F WCI  27
LITTLE FALLS   FOG       32  30  93 CALM      30.18S VSB 1/2
LITCHFIELD     CLEAR     36  36 100 W3        30.22S
BUFFALO        CLEAR     35  33  92 CALM      30.22S
MAPLE LAKE     CLEAR     35  34  98 SW3       30.22R
HUTCHINSON     CLOUDY    33  32  99 CALM      30.23S
$$
MNZ037-044-045-052-053-161400-
   East Central Minnesota

CITY           SKY/WX    TMP DP  RH WIND       PRES   REMARKS
PRINCETON      CLEAR     34  34 100 CALM      30.19F
MORA           CLEAR     32  32 100 CALM      30.20F FOG
CAMBRIDGE      CLEAR     36  36 100 CALM      30.21R FOG
RUSH CITY      CLEAR     33  32  96 S3        30.20S FOG
MOOSE LAKE     PTCLDY    30  30 100 CALM      30.15S
HINCKLEY       FOG       32  32 100 CALM      30.18S VSB 3/4
CLOQUET        PTCLDY    37  34  87 SW5       30.14S
MCGREGOR       CLEAR     34  34 100 SW3       30.15F
$$
MNZ071>073-080-081-089-090-097-098-161400-
   Southwest Minnesota

CITY           SKY/WX    TMP DP  RH WIND       PRES   REMARKS
MONTEVIDEO     CLEAR     36  30  80 SW5       30.20F
GRANITE FALLS  CLEAR     35  32  90 S3        30.22F
CANBY          CLEAR     44  32  63 SW7       30.20F
MARSHALL       CLEAR     38  31  76 SW9       30.22F
REDWOOD FALLS  CLEAR     36  30  79 SW8       30.22F
OLIVIA         CLEAR     34  32  93 CALM      30.21F
PIPESTONE      CLEAR     36  30  80 S3        30.22S
WORTHINGTON    CLEAR     35  32  88 SW8       30.25F WCI  29
JACKSON        CLEAR     34  32  93 CALM      30.26F
TRACY          CLEAR     40  33  75 SW10      30.22F
SLAYTON        CLEAR     34  31  89 S5        30.23F WCI  30
$$
MNZ065>067-074>077-082>085-091>093-161400-
   South Central Minnesota

CITY           SKY/WX    TMP DP  RH WIND       PRES   REMARKS
MANKATO        CLEAR     33  31  92 S3        30.25S
NEW ULM          N/A     34  30  86 SW5       30.24S WCI  30
ST JAMES       CLEAR     34  32  93 CALM      30.26S
FAIRMONT       CLEAR     36  32  85 SW3       30.26F
GLENCOE        CLEAR     35  35 100 CALM      30.22S
FARIBAULT      CLEAR     36  34  93 CALM      30.24F
OWATONNA       CLEAR     36  34  93 CALM      30.25S
WASECA         CLEAR     32  32 100 S5        30.26S WCI  27
ALBERT LEA     CLEAR     37  37 100 CALM      30.26S
$$
MNZ078>079-086>088-094>096-161400-
   Southeast Minnesota

CITY           SKY/WX    TMP DP  RH WIND       PRES   REMARKS
ROCHESTER      CLEAR     34  33  96 S6        30.25S WCI  29
RED WING       CLEAR     34  32  93 CALM      30.23R
STANTON        CLEAR     37  34  89 S6        30.23R
DODGE CENTER   CLEAR     36  34  93 SW7       30.25S
WINONA         CLEAR     34  34 100 CALM      30.27S
AUSTIN         CLEAR     36  34  93 S5        30.26S
PRESTON        CLEAR     35  33  92 SW5       30.27R WCI  31
$$
ABBREVIATIONS USED IN REMARKS
   TC - TEMPERATURES IN CELSIUS
  WCI - WIND CHILL INDEX
   HX - HEAT INDEX
  VSB - VISIBILITY
$$




USA.gov is the U.S. government's official web portal to all federal, state and local government web resources and services.